Year,Month,Day,Hour,Minute,Value (Times are PST for windspeed in km/hr)
2019,04,05,00,00,0.00
2019,04,05,00,01,0.00
2019,04,05,00,02,0.00
2019,04,05,00,03,0.00
2019,04,05,00,04,0.00
2019,04,05,00,05,0.00
2019,04,05,00,06,0.00
2019,04,05,00,07,0.00
2019,04,05,00,08,0.00
2019,04,05,00,09,0.10
2019,04,05,00,10,0.00
2019,04,05,00,11,0.00
2019,04,05,00,12,0.00
2019,04,05,00,13,0.00
2019,04,05,00,14,0.00
2019,04,05,00,15,0.00
2019,04,05,00,16,0.00
2019,04,05,00,17,0.00
2019,04,05,00,18,0.00
2019,04,05,00,19,0.00
2019,04,05,00,20,0.00
2019,04,05,00,21,3.20
2019,04,05,00,22,1.70
2019,04,05,00,23,1.30
2019,04,05,00,24,3.20
2019,04,05,00,25,0.40
2019,04,05,00,26,0.00
2019,04,05,00,27,0.30
2019,04,05,00,28,0.00
2019,04,05,00,29,0.00
2019,04,05,00,30,0.00
2019,04,05,00,31,0.00
2019,04,05,00,32,0.00
2019,04,05,00,33,0.00
2019,04,05,00,34,0.00
2019,04,05,00,35,0.00
2019,04,05,00,36,0.00
2019,04,05,00,37,0.00
2019,04,05,00,38,0.00
2019,04,05,00,39,0.00
2019,04,05,00,40,0.00
2019,04,05,00,41,0.00
2019,04,05,00,42,0.00
2019,04,05,00,43,0.00
2019,04,05,00,44,0.00
2019,04,05,00,45,1.10
2019,04,05,00,46,4.30
2019,04,05,00,47,6.10
2019,04,05,00,48,7.00
2019,04,05,00,49,7.00
2019,04,05,00,50,5.60
2019,04,05,00,51,3.40
2019,04,05,00,52,4.50
2019,04,05,00,53,3.80
2019,04,05,00,54,5.80
2019,04,05,00,55,7.60
2019,04,05,00,56,6.00
2019,04,05,00,57,3.30
2019,04,05,00,58,3.90
2019,04,05,00,59,3.20
2019,04,05,01,00,4.30
2019,04,05,01,01,3.70
2019,04,05,01,02,4.30
2019,04,05,01,03,3.90
2019,04,05,01,04,4.20
2019,04,05,01,05,3.50
2019,04,05,01,06,3.90
2019,04,05,01,07,2.80
2019,04,05,01,08,4.60
2019,04,05,01,09,2.60
2019,04,05,01,10,3.90
2019,04,05,01,11,4.80
2019,04,05,01,12,4.10
2019,04,05,01,13,5.10
2019,04,05,01,14,4.60
2019,04,05,01,15,4.40
2019,04,05,01,16,8.10
2019,04,05,01,17,8.30
2019,04,05,01,18,9.20
2019,04,05,01,19,4.40
2019,04,05,01,20,5.80
2019,04,05,01,21,6.10
2019,04,05,01,22,4.80
2019,04,05,01,23,7.80
2019,04,05,01,24,8.00
2019,04,05,01,25,5.60
2019,04,05,01,26,3.50
2019,04,05,01,27,6.90
2019,04,05,01,28,4.40
2019,04,05,01,29,6.90
2019,04,05,01,30,2.60
2019,04,05,01,31,3.90
2019,04,05,01,32,5.50
2019,04,05,01,33,6.30
2019,04,05,01,34,4.60
2019,04,05,01,35,3.40
2019,04,05,01,36,1.70
2019,04,05,01,37,4.00
2019,04,05,01,38,1.70
2019,04,05,01,39,2.60
2019,04,05,01,40,7.30
2019,04,05,01,41,8.50
2019,04,05,01,42,7.80
2019,04,05,01,43,6.30
2019,04,05,01,44,5.20
2019,04,05,01,45,3.90
2019,04,05,01,46,3.80
2019,04,05,01,47,3.60
2019,04,05,01,48,3.00
2019,04,05,01,49,4.00
2019,04,05,01,50,0.70
2019,04,05,01,51,0.90
2019,04,05,01,52,5.70
2019,04,05,01,53,3.90
2019,04,05,01,54,1.40
2019,04,05,01,55,2.00
2019,04,05,01,56,3.90
2019,04,05,01,57,3.00
2019,04,05,01,58,1.90
2019,04,05,01,59,2.90
2019,04,05,02,00,3.60
2019,04,05,02,01,2.70
2019,04,05,02,02,3.70
2019,04,05,02,03,1.60
2019,04,05,02,04,5.10
2019,04,05,02,05,1.80
2019,04,05,02,06,3.80
2019,04,05,02,07,1.80
2019,04,05,02,08,2.60
2019,04,05,02,09,2.90
2019,04,05,02,10,2.80
2019,04,05,02,11,1.60
2019,04,05,02,12,3.00
2019,04,05,02,13,3.60
2019,04,05,02,14,3.80
2019,04,05,02,15,1.00
2019,04,05,02,16,1.10
2019,04,05,02,17,3.70
2019,04,05,02,18,3.00
2019,04,05,02,19,3.50
2019,04,05,02,20,2.30
2019,04,05,02,21,0.90
2019,04,05,02,22,3.30
2019,04,05,02,23,0.40
2019,04,05,02,24,0.00
2019,04,05,02,25,0.00
2019,04,05,02,26,0.00
2019,04,05,02,27,0.00
2019,04,05,02,28,0.00
2019,04,05,02,29,0.00
2019,04,05,02,30,0.00
2019,04,05,02,31,0.00
2019,04,05,02,32,0.00
2019,04,05,02,33,0.00
2019,04,05,02,34,0.00
2019,04,05,02,35,0.00
2019,04,05,02,36,0.00
2019,04,05,02,37,0.00
2019,04,05,02,38,0.00
2019,04,05,02,39,0.00
2019,04,05,02,40,0.00
2019,04,05,02,41,0.00
2019,04,05,02,42,0.00
2019,04,05,02,43,0.00
2019,04,05,02,44,0.00
2019,04,05,02,45,0.00
2019,04,05,02,46,0.00
2019,04,05,02,47,0.00
2019,04,05,02,48,0.00
2019,04,05,02,49,0.00
2019,04,05,02,50,0.00
2019,04,05,02,51,0.00
2019,04,05,02,52,0.00
2019,04,05,02,53,0.00
2019,04,05,02,54,0.00
2019,04,05,02,55,0.00
2019,04,05,02,56,0.00
2019,04,05,02,57,0.00
2019,04,05,02,58,0.00
2019,04,05,02,59,0.00
2019,04,05,03,00,0.00
2019,04,05,03,01,0.00
2019,04,05,03,02,0.00
2019,04,05,03,03,1.20
2019,04,05,03,04,1.70
2019,04,05,03,05,0.10
2019,04,05,03,06,0.00
2019,04,05,03,07,1.30
2019,04,05,03,08,2.10
2019,04,05,03,09,2.10
2019,04,05,03,10,0.00
2019,04,05,03,11,0.00
2019,04,05,03,12,4.20
2019,04,05,03,13,6.00
2019,04,05,03,14,3.30
2019,04,05,03,15,6.30
2019,04,05,03,16,5.50
2019,04,05,03,17,4.00
2019,04,05,03,18,6.90
2019,04,05,03,19,5.10
2019,04,05,03,20,5.80
2019,04,05,03,21,4.90
2019,04,05,03,22,9.20
2019,04,05,03,23,10.00
2019,04,05,03,24,3.90
2019,04,05,03,25,8.10
2019,04,05,03,26,3.80
2019,04,05,03,27,4.20
2019,04,05,03,28,10.30
2019,04,05,03,29,7.30
2019,04,05,03,30,5.40
2019,04,05,03,31,9.40
2019,04,05,03,32,9.90
2019,04,05,03,33,8.80
2019,04,05,03,34,8.60
2019,04,05,03,35,9.70
2019,04,05,03,36,8.80
2019,04,05,03,37,9.90
2019,04,05,03,38,7.70
2019,04,05,03,39,7.40
2019,04,05,03,40,6.60
2019,04,05,03,41,10.10
2019,04,05,03,42,8.20
2019,04,05,03,43,12.90
2019,04,05,03,44,9.90
2019,04,05,03,45,12.00
2019,04,05,03,46,12.40
2019,04,05,03,47,12.00
2019,04,05,03,48,11.10
2019,04,05,03,49,14.40
2019,04,05,03,50,13.80
2019,04,05,03,51,13.90
2019,04,05,03,52,17.30
2019,04,05,03,53,15.70
2019,04,05,03,54,14.20
2019,04,05,03,55,15.60
2019,04,05,03,56,14.80
2019,04,05,03,57,14.90
2019,04,05,03,58,12.40
2019,04,05,03,59,14.00
2019,04,05,04,00,16.50
2019,04,05,04,01,14.50
2019,04,05,04,02,16.90
2019,04,05,04,03,17.40
2019,04,05,04,04,16.60
2019,04,05,04,05,15.80
2019,04,05,04,06,16.70
2019,04,05,04,07,17.80
2019,04,05,04,08,17.30
2019,04,05,04,09,19.90
2019,04,05,04,10,15.30
2019,04,05,04,11,10.80
2019,04,05,04,12,14.40
2019,04,05,04,13,17.80
2019,04,05,04,14,15.00
2019,04,05,04,15,21.20
2019,04,05,04,16,20.20
2019,04,05,04,17,16.30
2019,04,05,04,18,18.10
2019,04,05,04,19,21.70
2019,04,05,04,20,17.90
2019,04,05,04,21,17.90
2019,04,05,04,22,18.80
2019,04,05,04,23,22.30
2019,04,05,04,24,19.70
2019,04,05,04,25,20.70
2019,04,05,04,26,18.00
2019,04,05,04,27,20.00
2019,04,05,04,28,16.90
2019,04,05,04,29,23.20
2019,04,05,04,30,19.70
2019,04,05,04,31,23.20
2019,04,05,04,32,20.30
2019,04,05,04,33,19.40
2019,04,05,04,34,23.90
2019,04,05,04,35,18.10
2019,04,05,04,36,18.30
2019,04,05,04,37,22.20
2019,04,05,04,38,17.50
2019,04,05,04,39,19.40
2019,04,05,04,40,17.60
2019,04,05,04,41,16.00
2019,04,05,04,42,17.30
2019,04,05,04,43,19.80
2019,04,05,04,44,17.00
2019,04,05,04,45,17.40
2019,04,05,04,46,17.10
2019,04,05,04,47,19.70
2019,04,05,04,48,24.50
2019,04,05,04,49,18.50
2019,04,05,04,50,17.50
2019,04,05,04,51,16.30
2019,04,05,04,52,20.10
2019,04,05,04,53,15.60
2019,04,05,04,54,13.90
2019,04,05,04,55,19.30
2019,04,05,04,56,18.40
2019,04,05,04,57,20.50
2019,04,05,04,58,16.60
2019,04,05,04,59,18.30
2019,04,05,05,00,21.20
2019,04,05,05,01,27.50
2019,04,05,05,02,25.80
2019,04,05,05,03,23.40
2019,04,05,05,04,22.90
2019,04,05,05,05,23.50
2019,04,05,05,06,23.20
2019,04,05,05,07,21.50
2019,04,05,05,08,16.90
2019,04,05,05,09,14.50
2019,04,05,05,10,9.10
2019,04,05,05,11,15.40
2019,04,05,05,12,12.90
2019,04,05,05,13,12.20
2019,04,05,05,14,18.60
2019,04,05,05,15,16.00
2019,04,05,05,16,16.40
2019,04,05,05,17,22.80
2019,04,05,05,18,21.60
2019,04,05,05,19,19.40
2019,04,05,05,20,21.70
2019,04,05,05,21,17.60
2019,04,05,05,22,18.60
2019,04,05,05,23,17.80
2019,04,05,05,24,15.70
2019,04,05,05,25,20.50
2019,04,05,05,26,17.60
2019,04,05,05,27,18.80
2019,04,05,05,28,20.40
2019,04,05,05,29,20.00
2019,04,05,05,30,15.10
2019,04,05,05,31,14.50
2019,04,05,05,32,17.00
2019,04,05,05,33,18.90
2019,04,05,05,34,15.50
2019,04,05,05,35,19.90
2019,04,05,05,36,20.30
2019,04,05,05,37,22.70
2019,04,05,05,38,22.00
2019,04,05,05,39,26.20
2019,04,05,05,40,21.20
2019,04,05,05,41,25.60
2019,04,05,05,42,21.90
2019,04,05,05,43,24.90
2019,04,05,05,44,18.70
2019,04,05,05,45,22.40
2019,04,05,05,46,22.60
2019,04,05,05,47,20.40
2019,04,05,05,48,24.60
2019,04,05,05,49,19.10
2019,04,05,05,50,24.20
2019,04,05,05,51,23.20
2019,04,05,05,52,15.20
2019,04,05,05,53,16.00
2019,04,05,05,54,21.00
2019,04,05,05,55,16.60
2019,04,05,05,56,17.40
2019,04,05,05,57,18.00
2019,04,05,05,58,19.80
2019,04,05,05,59,17.80
2019,04,05,06,00,15.70
2019,04,05,06,01,16.60
2019,04,05,06,02,21.10
2019,04,05,06,03,19.10
2019,04,05,06,04,20.50
2019,04,05,06,05,16.90
2019,04,05,06,06,18.70
2019,04,05,06,07,22.80
2019,04,05,06,08,17.50
2019,04,05,06,09,24.60
2019,04,05,06,10,17.10
2019,04,05,06,11,19.40
2019,04,05,06,12,15.20
2019,04,05,06,13,21.90
2019,04,05,06,14,24.00
2019,04,05,06,15,26.20
2019,04,05,06,16,26.00
2019,04,05,06,17,23.30
2019,04,05,06,18,24.10
2019,04,05,06,19,21.80
2019,04,05,06,20,18.00
2019,04,05,06,21,20.10
2019,04,05,06,22,18.10
2019,04,05,06,23,18.70
2019,04,05,06,24,18.10
2019,04,05,06,25,17.10
2019,04,05,06,26,19.70
2019,04,05,06,27,18.70
2019,04,05,06,28,15.40
2019,04,05,06,29,20.90
2019,04,05,06,30,16.50
2019,04,05,06,31,20.90
2019,04,05,06,32,24.70
2019,04,05,06,33,17.90
2019,04,05,06,34,20.20
2019,04,05,06,35,26.80
2019,04,05,06,36,23.50
2019,04,05,06,37,22.80
2019,04,05,06,38,17.00
2019,04,05,06,39,11.90
2019,04,05,06,40,25.20
2019,04,05,06,41,16.60
2019,04,05,06,42,18.80
2019,04,05,06,43,17.20
2019,04,05,06,44,24.20
2019,04,05,06,45,14.20
2019,04,05,06,46,20.20
2019,04,05,06,47,16.80
2019,04,05,06,48,19.10
2019,04,05,06,49,16.90
2019,04,05,06,50,16.30
2019,04,05,06,51,25.10
2019,04,05,06,52,17.80
2019,04,05,06,53,16.60
2019,04,05,06,54,19.70
2019,04,05,06,55,16.80
2019,04,05,06,56,13.80
2019,04,05,06,57,18.60
2019,04,05,06,58,13.70
2019,04,05,06,59,22.80
2019,04,05,07,00,17.70
2019,04,05,07,01,19.00
2019,04,05,07,02,15.40
2019,04,05,07,03,16.60
2019,04,05,07,04,17.10
2019,04,05,07,05,19.70
2019,04,05,07,06,17.90
2019,04,05,07,07,16.60
2019,04,05,07,08,21.60
2019,04,05,07,09,20.70
2019,04,05,07,10,25.90
2019,04,05,07,11,22.10
2019,04,05,07,12,21.30
2019,04,05,07,13,20.00
2019,04,05,07,14,17.80
2019,04,05,07,15,23.50
2019,04,05,07,16,17.00
2019,04,05,07,17,19.30
2019,04,05,07,18,23.70
2019,04,05,07,19,23.90
2019,04,05,07,20,21.10
2019,04,05,07,21,17.70
2019,04,05,07,22,20.90
2019,04,05,07,23,20.80
2019,04,05,07,24,21.50
2019,04,05,07,25,22.40
2019,04,05,07,26,20.40
2019,04,05,07,27,21.70
2019,04,05,07,28,22.50
2019,04,05,07,29,23.40
2019,04,05,07,30,20.40
2019,04,05,07,31,22.40
2019,04,05,07,32,18.30
2019,04,05,07,33,22.10
2019,04,05,07,34,21.20
2019,04,05,07,35,23.80
2019,04,05,07,36,20.90
2019,04,05,07,37,13.20
2019,04,05,07,38,21.60
2019,04,05,07,39,20.40
2019,04,05,07,40,15.70
2019,04,05,07,41,17.80
2019,04,05,07,42,21.70
2019,04,05,07,43,17.60
2019,04,05,07,44,17.90
2019,04,05,07,45,14.70
2019,04,05,07,46,21.00
2019,04,05,07,47,13.70
2019,04,05,07,48,13.10
2019,04,05,07,49,17.30
2019,04,05,07,50,17.20
2019,04,05,07,51,19.00
2019,04,05,07,52,16.60
2019,04,05,07,53,21.50
2019,04,05,07,54,21.50
2019,04,05,07,55,25.60
2019,04,05,07,56,22.00
2019,04,05,07,57,23.40
2019,04,05,07,58,23.50
2019,04,05,07,59,16.60
2019,04,05,08,00,20.70
2019,04,05,08,01,20.10
2019,04,05,08,02,22.00
2019,04,05,08,03,19.70
2019,04,05,08,04,18.00
2019,04,05,08,05,17.20
2019,04,05,08,06,17.90
2019,04,05,08,07,14.70
2019,04,05,08,08,16.30
2019,04,05,08,09,21.00
2019,04,05,08,10,22.30
2019,04,05,08,11,18.40
2019,04,05,08,12,20.90
2019,04,05,08,13,17.50
2019,04,05,08,14,17.20
2019,04,05,08,15,24.40
2019,04,05,08,16,25.10
2019,04,05,08,17,26.60
2019,04,05,08,18,19.70
2019,04,05,08,19,20.90
2019,04,05,08,20,25.90
2019,04,05,08,21,17.60
2019,04,05,08,22,17.90
2019,04,05,08,23,19.30
2019,04,05,08,24,20.00
2019,04,05,08,25,19.30
2019,04,05,08,26,20.70
2019,04,05,08,27,18.00
2019,04,05,08,28,14.60
2019,04,05,08,29,11.40
2019,04,05,08,30,16.90
2019,04,05,08,31,15.70
2019,04,05,08,32,14.10
2019,04,05,08,33,17.80
2019,04,05,08,34,20.20
2019,04,05,08,35,19.40
2019,04,05,08,36,19.60
2019,04,05,08,37,16.60
2019,04,05,08,38,20.10
2019,04,05,08,39,17.50
2019,04,05,08,40,18.70
2019,04,05,08,41,17.20
2019,04,05,08,42,14.40
2019,04,05,08,43,17.20
2019,04,05,08,44,16.00
2019,04,05,08,45,21.00
2019,04,05,08,46,17.70
2019,04,05,08,47,16.10
2019,04,05,08,48,20.40
2019,04,05,08,49,17.90
2019,04,05,08,50,18.60
2019,04,05,08,51,16.80
2019,04,05,08,52,22.70
2019,04,05,08,53,17.20
2019,04,05,08,54,19.80
2019,04,05,08,55,19.20
2019,04,05,08,56,19.70
2019,04,05,08,57,23.00
2019,04,05,08,58,18.20
2019,04,05,08,59,22.60
2019,04,05,09,00,21.50
2019,04,05,09,01,24.00
2019,04,05,09,02,24.60
2019,04,05,09,03,25.80
2019,04,05,09,04,20.90
2019,04,05,09,05,22.10
2019,04,05,09,06,23.80
2019,04,05,09,07,27.50
2019,04,05,09,08,22.90
2019,04,05,09,09,23.30
2019,04,05,09,10,28.80
2019,04,05,09,11,23.70
2019,04,05,09,12,25.50
2019,04,05,09,13,23.50
2019,04,05,09,14,22.40
2019,04,05,09,15,26.30
2019,04,05,09,16,30.00
2019,04,05,09,17,21.80
2019,04,05,09,18,23.90
2019,04,05,09,19,26.00
2019,04,05,09,20,22.60
2019,04,05,09,21,23.10
2019,04,05,09,22,23.90
2019,04,05,09,23,22.20
2019,04,05,09,24,24.80
2019,04,05,09,25,20.70
2019,04,05,09,26,22.60
2019,04,05,09,27,22.90
2019,04,05,09,28,30.90
2019,04,05,09,29,26.90
2019,04,05,09,30,26.80
2019,04,05,09,31,29.60
2019,04,05,09,32,26.80
2019,04,05,09,33,31.10
2019,04,05,09,34,28.10
2019,04,05,09,35,22.40
2019,04,05,09,36,22.50
2019,04,05,09,37,28.40
2019,04,05,09,38,21.60
2019,04,05,09,39,26.70
2019,04,05,09,40,24.70
2019,04,05,09,41,28.30
2019,04,05,09,42,29.10
2019,04,05,09,43,29.00
2019,04,05,09,44,24.00
2019,04,05,09,45,28.40
2019,04,05,09,46,29.10
2019,04,05,09,47,29.40
2019,04,05,09,48,29.00
2019,04,05,09,49,28.30
2019,04,05,09,50,25.90
2019,04,05,09,51,29.40
2019,04,05,09,52,28.90
2019,04,05,09,53,31.40
2019,04,05,09,54,17.50
2019,04,05,09,55,28.20
2019,04,05,09,56,23.10
2019,04,05,09,57,25.70
2019,04,05,09,58,25.70
2019,04,05,09,59,22.80
2019,04,05,10,00,25.20
2019,04,05,10,01,23.80
2019,04,05,10,02,26.30
2019,04,05,10,03,25.40
2019,04,05,10,04,23.50
2019,04,05,10,05,26.00
2019,04,05,10,06,28.50
2019,04,05,10,07,25.70
2019,04,05,10,08,27.20
2019,04,05,10,09,29.30
2019,04,05,10,10,27.50
2019,04,05,10,11,26.60
2019,04,05,10,12,29.50
2019,04,05,10,13,22.80
2019,04,05,10,14,22.80
2019,04,05,10,15,16.70
2019,04,05,10,16,20.70
2019,04,05,10,17,23.00
2019,04,05,10,18,21.00
2019,04,05,10,19,23.20
2019,04,05,10,20,18.50
2019,04,05,10,21,17.90
2019,04,05,10,22,18.20
2019,04,05,10,23,15.00
2019,04,05,10,24,10.40
2019,04,05,10,25,17.70
2019,04,05,10,26,23.10
2019,04,05,10,27,20.50
2019,04,05,10,28,21.60
2019,04,05,10,29,26.90
2019,04,05,10,30,24.40
2019,04,05,10,31,20.00
2019,04,05,10,32,20.00
2019,04,05,10,33,25.20
2019,04,05,10,34,22.30
2019,04,05,10,35,15.50
2019,04,05,10,36,19.70
2019,04,05,10,37,27.50
2019,04,05,10,38,21.50
2019,04,05,10,39,20.20
2019,04,05,10,40,19.80
2019,04,05,10,41,23.10
2019,04,05,10,42,24.20
2019,04,05,10,43,25.20
2019,04,05,10,44,24.40
2019,04,05,10,45,23.70
2019,04,05,10,46,24.50
2019,04,05,10,47,27.90
2019,04,05,10,48,21.40
2019,04,05,10,49,24.30
2019,04,05,10,50,19.30
2019,04,05,10,51,19.10
2019,04,05,10,52,19.20
2019,04,05,10,53,27.00
2019,04,05,10,54,23.40
2019,04,05,10,55,17.90
2019,04,05,10,56,21.70
2019,04,05,10,57,19.20
2019,04,05,10,58,17.10
2019,04,05,10,59,21.80
2019,04,05,11,00,16.20
2019,04,05,11,01,17.80
2019,04,05,11,02,19.90
2019,04,05,11,03,19.10
2019,04,05,11,04,18.90
2019,04,05,11,05,20.90
2019,04,05,11,06,21.60
2019,04,05,11,07,24.20
2019,04,05,11,08,24.10
2019,04,05,11,09,24.90
2019,04,05,11,10,22.70
2019,04,05,11,11,21.60
2019,04,05,11,12,25.70
2019,04,05,11,13,23.50
2019,04,05,11,14,21.00
2019,04,05,11,15,24.40
2019,04,05,11,16,24.90
2019,04,05,11,17,22.40
2019,04,05,11,18,26.00
2019,04,05,11,19,21.70
2019,04,05,11,20,21.60
2019,04,05,11,21,24.00
2019,04,05,11,22,20.20
2019,04,05,11,23,20.20
2019,04,05,11,24,20.50
2019,04,05,11,25,22.60
2019,04,05,11,26,21.60
2019,04,05,11,27,17.40
2019,04,05,11,28,18.70
2019,04,05,11,29,14.70
2019,04,05,11,30,15.90
2019,04,05,11,31,20.10
2019,04,05,11,32,19.90
2019,04,05,11,33,22.20
2019,04,05,11,34,17.30
2019,04,05,11,35,20.90
2019,04,05,11,36,17.90
2019,04,05,11,37,21.90
2019,04,05,11,38,23.00
2019,04,05,11,39,22.20
2019,04,05,11,40,21.80
2019,04,05,11,41,15.80
2019,04,05,11,42,21.50
2019,04,05,11,43,22.00
2019,04,05,11,44,26.30
2019,04,05,11,45,26.50
2019,04,05,11,46,21.90
2019,04,05,11,47,23.70
2019,04,05,11,48,22.50
2019,04,05,11,49,18.20
2019,04,05,11,50,23.50
2019,04,05,11,51,19.10
2019,04,05,11,52,20.90
2019,04,05,11,53,21.50
2019,04,05,11,54,19.40
2019,04,05,11,55,24.10
2019,04,05,11,56,21.00
2019,04,05,11,57,22.80
2019,04,05,11,58,19.60
2019,04,05,11,59,19.80
2019,04,05,12,00,23.40
2019,04,05,12,01,24.10
2019,04,05,12,02,22.20
2019,04,05,12,03,17.50
2019,04,05,12,04,20.30
2019,04,05,12,05,19.60
2019,04,05,12,06,15.10
2019,04,05,12,07,16.00
2019,04,05,12,08,19.60
2019,04,05,12,09,17.20
2019,04,05,12,10,19.60
2019,04,05,12,11,17.90
2019,04,05,12,12,17.40
2019,04,05,12,13,15.70
2019,04,05,12,14,14.60
2019,04,05,12,15,15.70
2019,04,05,12,16,20.10
2019,04,05,12,17,22.00
2019,04,05,12,18,22.70
2019,04,05,12,19,21.40
2019,04,05,12,20,18.50
2019,04,05,12,21,21.90
2019,04,05,12,22,17.40
2019,04,05,12,23,23.80
2019,04,05,12,24,20.40
2019,04,05,12,25,18.30
2019,04,05,12,26,18.60
2019,04,05,12,27,19.90
2019,04,05,12,28,16.70
2019,04,05,12,29,21.10
2019,04,05,12,30,17.30
2019,04,05,12,31,20.90
2019,04,05,12,32,22.50
2019,04,05,12,33,20.10
2019,04,05,12,34,22.80
2019,04,05,12,35,21.80
2019,04,05,12,36,25.90
2019,04,05,12,37,22.90
2019,04,05,12,38,24.00
2019,04,05,12,39,27.70
2019,04,05,12,40,19.00
2019,04,05,12,41,23.60
2019,04,05,12,42,20.40
2019,04,05,12,43,20.40
2019,04,05,12,44,18.30
2019,04,05,12,45,24.50
2019,04,05,12,46,16.60
2019,04,05,12,47,22.10
2019,04,05,12,48,21.90
2019,04,05,12,49,21.80
2019,04,05,12,50,26.20
2019,04,05,12,51,27.00
2019,04,05,12,52,21.20
2019,04,05,12,53,27.10
2019,04,05,12,54,26.60
2019,04,05,12,55,22.90
2019,04,05,12,56,20.60
2019,04,05,12,57,21.10
2019,04,05,12,58,20.40
2019,04,05,12,59,22.80
2019,04,05,13,00,20.00
2019,04,05,13,01,15.40
2019,04,05,13,02,26.80
2019,04,05,13,03,28.10
2019,04,05,13,04,24.00
2019,04,05,13,05,24.30
2019,04,05,13,06,24.80
2019,04,05,13,07,29.20
2019,04,05,13,08,17.60
2019,04,05,13,09,21.60
2019,04,05,13,10,24.60
2019,04,05,13,11,23.80
2019,04,05,13,12,21.50
2019,04,05,13,13,24.40
2019,04,05,13,14,22.00
2019,04,05,13,15,18.80
2019,04,05,13,16,25.30
2019,04,05,13,17,22.30
2019,04,05,13,18,20.90
2019,04,05,13,19,21.20
2019,04,05,13,20,19.40
2019,04,05,13,21,21.20
2019,04,05,13,22,22.70
2019,04,05,13,23,20.90
2019,04,05,13,24,20.40
2019,04,05,13,25,17.60
2019,04,05,13,26,22.00
2019,04,05,13,27,21.60
2019,04,05,13,28,20.10
2019,04,05,13,29,19.60
2019,04,05,13,30,17.30
2019,04,05,13,31,18.80
2019,04,05,13,32,23.30
2019,04,05,13,33,19.10
2019,04,05,13,34,23.00
2019,04,05,13,35,26.90
2019,04,05,13,36,25.80
2019,04,05,13,37,25.90
2019,04,05,13,38,23.30
2019,04,05,13,39,25.30
2019,04,05,13,40,22.10
2019,04,05,13,41,25.00
2019,04,05,13,42,30.00
2019,04,05,13,43,26.50
2019,04,05,13,44,31.80
2019,04,05,13,45,23.10
2019,04,05,13,46,29.00
2019,04,05,13,47,28.30
2019,04,05,13,48,32.70
2019,04,05,13,49,31.10
2019,04,05,13,50,25.50
2019,04,05,13,51,23.20
2019,04,05,13,52,28.90
2019,04,05,13,53,20.00
2019,04,05,13,54,29.70
2019,04,05,13,55,27.40
2019,04,05,13,56,27.40
2019,04,05,13,57,27.40
2019,04,05,13,58,26.80
2019,04,05,13,59,25.20
2019,04,05,14,00,21.60
2019,04,05,14,01,29.10
2019,04,05,14,02,25.60
2019,04,05,14,03,26.70
2019,04,05,14,04,22.30
2019,04,05,14,05,25.50
2019,04,05,14,06,29.30
2019,04,05,14,07,23.90
2019,04,05,14,08,24.40
2019,04,05,14,09,27.50
2019,04,05,14,10,29.00
2019,04,05,14,11,32.60
2019,04,05,14,12,31.60
2019,04,05,14,13,28.20
2019,04,05,14,14,34.30
2019,04,05,14,15,27.10
2019,04,05,14,16,26.70
2019,04,05,14,17,27.20
2019,04,05,14,18,30.40
2019,04,05,14,19,22.10
2019,04,05,14,20,23.40
2019,04,05,14,21,29.80
2019,04,05,14,22,27.60
2019,04,05,14,23,20.30
2019,04,05,14,24,21.30
2019,04,05,14,25,21.80
2019,04,05,14,26,22.90
2019,04,05,14,27,21.70
2019,04,05,14,28,23.70
2019,04,05,14,29,20.40
2019,04,05,14,30,22.20
2019,04,05,14,31,21.90
2019,04,05,14,32,23.70
2019,04,05,14,33,23.90
2019,04,05,14,34,23.20
2019,04,05,14,35,23.00
2019,04,05,14,36,26.40
2019,04,05,14,37,23.00
2019,04,05,14,38,22.50
2019,04,05,14,39,16.90
2019,04,05,14,40,21.30
2019,04,05,14,41,18.80
2019,04,05,14,42,19.70
2019,04,05,14,43,18.20
2019,04,05,14,44,15.50
2019,04,05,14,45,18.80
2019,04,05,14,46,18.20
2019,04,05,14,47,19.10
2019,04,05,14,48,20.60
2019,04,05,14,49,19.20
2019,04,05,14,50,18.70
2019,04,05,14,51,18.50
2019,04,05,14,52,17.80
2019,04,05,14,53,15.70
2019,04,05,14,54,18.10
2019,04,05,14,55,22.90
2019,04,05,14,56,13.90
2019,04,05,14,57,15.80
2019,04,05,14,58,21.00
2019,04,05,14,59,14.30
2019,04,05,15,00,16.20
2019,04,05,15,01,16.70
2019,04,05,15,02,15.60
2019,04,05,15,03,17.30
2019,04,05,15,04,19.00
2019,04,05,15,05,15.90
2019,04,05,15,06,15.40
2019,04,05,15,07,19.30
2019,04,05,15,08,14.70
2019,04,05,15,09,14.60
2019,04,05,15,10,18.40
2019,04,05,15,11,18.90
2019,04,05,15,12,10.10
2019,04,05,15,13,15.70
2019,04,05,15,14,11.50
2019,04,05,15,15,15.80
2019,04,05,15,16,13.80
2019,04,05,15,17,12.50
2019,04,05,15,18,15.40
2019,04,05,15,19,19.10
2019,04,05,15,20,15.70
2019,04,05,15,21,16.90
2019,04,05,15,22,17.30
2019,04,05,15,23,16.40
2019,04,05,15,24,17.40
2019,04,05,15,25,15.90
2019,04,05,15,26,17.90
2019,04,05,15,27,14.30
2019,04,05,15,28,12.90
2019,04,05,15,29,18.00
2019,04,05,15,30,16.50
2019,04,05,15,31,17.90
2019,04,05,15,32,17.60
2019,04,05,15,33,18.50
2019,04,05,15,34,12.80
2019,04,05,15,35,15.60
2019,04,05,15,36,14.80
2019,04,05,15,37,11.00
2019,04,05,15,38,8.40
2019,04,05,15,39,14.50
2019,04,05,15,40,17.50
2019,04,05,15,41,15.00
2019,04,05,15,42,15.30
2019,04,05,15,43,12.20
2019,04,05,15,44,16.60
2019,04,05,15,45,10.10
2019,04,05,15,46,15.40
2019,04,05,15,47,14.80
2019,04,05,15,48,12.00
2019,04,05,15,49,19.20
2019,04,05,15,50,15.90
2019,04,05,15,51,13.30
2019,04,05,15,52,17.00
2019,04,05,15,53,15.00
2019,04,05,15,54,12.30
2019,04,05,15,55,18.00
2019,04,05,15,56,14.70
2019,04,05,15,57,14.80
2019,04,05,15,58,18.00
2019,04,05,15,59,15.80
2019,04,05,16,00,14.20
2019,04,05,16,01,16.10
2019,04,05,16,02,15.70
2019,04,05,16,03,14.10
2019,04,05,16,04,17.20
2019,04,05,16,05,15.50
2019,04,05,16,06,14.70
2019,04,05,16,07,15.80
2019,04,05,16,08,14.40
2019,04,05,16,09,14.50
2019,04,05,16,10,13.70
2019,04,05,16,11,12.40
2019,04,05,16,12,15.90
2019,04,05,16,13,16.30
2019,04,05,16,14,17.90
2019,04,05,16,15,17.00
2019,04,05,16,16,20.20
2019,04,05,16,17,19.70
2019,04,05,16,18,18.10
2019,04,05,16,19,18.50
2019,04,05,16,20,15.70
2019,04,05,16,21,15.20
2019,04,05,16,22,16.40
2019,04,05,16,23,14.70
2019,04,05,16,24,18.70
2019,04,05,16,25,14.10
2019,04,05,16,26,16.80
2019,04,05,16,27,19.00
2019,04,05,16,28,17.10
2019,04,05,16,29,20.30
2019,04,05,16,30,20.30
2019,04,05,16,31,17.00
2019,04,05,16,32,18.60
2019,04,05,16,33,20.90
2019,04,05,16,34,17.50
2019,04,05,16,35,21.20
2019,04,05,16,36,17.70
2019,04,05,16,37,16.90
2019,04,05,16,38,13.40
2019,04,05,16,39,18.20
2019,04,05,16,40,21.10
2019,04,05,16,41,20.60
2019,04,05,16,42,18.50
2019,04,05,16,43,17.10
2019,04,05,16,44,21.20
2019,04,05,16,45,15.10
2019,04,05,16,46,16.70
2019,04,05,16,47,16.20
2019,04,05,16,48,17.90
2019,04,05,16,49,17.70
2019,04,05,16,50,17.80
2019,04,05,16,51,15.90
2019,04,05,16,52,16.80
2019,04,05,16,53,12.00
2019,04,05,16,54,13.10
2019,04,05,16,55,12.00
2019,04,05,16,56,12.60
2019,04,05,16,57,13.80
2019,04,05,16,58,9.50
2019,04,05,16,59,13.50
2019,04,05,17,00,15.70
2019,04,05,17,01,19.20
2019,04,05,17,02,18.00
2019,04,05,17,03,15.70
2019,04,05,17,04,15.90
2019,04,05,17,05,16.20
2019,04,05,17,06,13.20
2019,04,05,17,07,16.30
2019,04,05,17,08,13.20
2019,04,05,17,09,12.80
2019,04,05,17,10,15.00
2019,04,05,17,11,8.30
2019,04,05,17,12,9.90
2019,04,05,17,13,8.70
2019,04,05,17,14,5.10
2019,04,05,17,15,6.00
2019,04,05,17,16,6.90
2019,04,05,17,17,8.00
2019,04,05,17,18,6.30
2019,04,05,17,19,7.30
2019,04,05,17,20,5.70
2019,04,05,17,21,7.60
2019,04,05,17,22,4.80
2019,04,05,17,23,7.30
2019,04,05,17,24,8.60
2019,04,05,17,25,8.10
2019,04,05,17,26,5.90
2019,04,05,17,27,3.70
2019,04,05,17,28,5.50
2019,04,05,17,29,1.10